COSMOS 1275 DEB, 42100

Orbit data source: Space-Track

COSMOS 1275 DEB, 42100 is space debris in LEO originally from a launch on Thu, 04 Jun 1981 UTC launched from the Plesetsk Missile And Space Complex (PKMTR). Debris objects in space refer to the collection of defunct objects orbiting the Earth. Examples of debris include non-operational satellites, rocket bodies, and fragments generated from explosions, collisions, or faulty payload assembly.

Loading next visibility...
Identifier
42100, 1981-053PL
Orbit
LEO
Country
Flag of CISCIS
Related business
Manufacturer
Unknown
Mission
Spacecraft
Bus & Motor
Unknown
Mass
Unknown
Launch date (UTC)
1981-06-04 (45 years ago)
Launch vehicle
Unknown
Launch site
Plesetsk Missile And Space Complex (PKMTR)
Object type
Payload
Rocket body
Debris
Shape & HBR
Unknown shape, 0.1 m
Radar Cross Section
Medium (>0.1 m² and <1 m²)

Expand to show TLE details & history
Last TLE update: 1 week ago

TLE from 1 week ago
0 COSMOS 1275 DEB
1 42100U 81053PL  26144.27079977  .00003856  00000-0  11624-2 0  9997
2 42100  82.8586 253.3712 0021330 187.4257 172.6624 14.42211256649377
Epoch: 2026-05-24T06:29Z
TLE epoch observation values (Epoch: 2026-05-24T06:29:57.100Z)
Latitude
0.00002°
Longitude
-85.99206°
Altitude
769.279 km
Speed
7.462 km/s
True Right ascension
16h 53m 29s
True Declination
0° 00' 00"
Sunlit
Object was in full shadow at epoch
Visualization orbit readout
Latitude
Unknown
Longitude
Unknown
Altitude
Unknown
Speed
Unknown
Apparent Right ascension
Unknown
Apparent Declination
Unknown
Sunlit
N/A
Visualization observer readout
Local Sidereal Time
06:22:52
Azimuth
Unknown
Elevation
Unknown
Doppler factor
Unknown
Orbital elements
Apogee altitude
763.462 km
Perigee altitude
733.061 km
Semi-major axis
7,126.399 km
Eccentricity
0.00213
Inclination
82.8586°
RAAN
253.3712°
Arg. of periapsis
187.4257°
True anomaly
172.69353°
Mean anomaly
172.6624°
Eccentric anomaly
172.67798°
Mean motion
3.60776 °/min
Orbital period
99.78 mins
BSTAR
0.0011624
Loading maneuver chart data...
Computing Atmospheric mass density...
Loading historical data...
Loading historical data...
Loading historical data...
Loading historical data...
Loading historical data...
Loading historical data...
Loading historical data...

Documentation

Showing up to 5 results
|